| time (UTC) | temp F | wind direction | speed knots | gust knots | rain 1hr in | rain 24hr in | rain mn in | humidity % | barometer mb |
| 20260902153331 | 69 | 312 | 0.0 | 1.7 | 0.00 | 0.00 | 0.00 | 54 | 1019.4 |
| 20260902152831 | 68 | 8 | 0.0 | 3.5 | 0.00 | 0.00 | 0.00 | 53 | 1019.5 |
| 20260902152330 | 68 | 293 | 0.9 | 4.3 | 0.00 | 0.00 | 0.00 | 53 | 1019.6 |
| 20260902151830 | 68 | 23 | 3.5 | 6.1 | 0.00 | 0.00 | 0.00 | 53 | 1019.6 |
| 20260902151330 | 68 | 355 | 1.7 | 6.1 | 0.00 | 0.00 | 0.00 | 53 | 1019.5 |
| 20260902150829 | 69 | 12 | 5.2 | 6.1 | 0.00 | 0.00 | 0.00 | 52 | 1019.6 |
| 20260902150329 | 70 | 46 | 0.9 | 7.0 | 0.00 | 0.00 | 0.00 | 51 | 1019.5 |
| 20260902145829 | 70 | 355 | 0.9 | 7.8 | 0.00 | 0.00 | 0.00 | 50 | 1019.5 |
| 20260902145329 | 71 | 316 | 5.2 | 10.4 | 0.00 | 0.00 | 0.00 | 48 | 1019.5 |
| 20260902144828 | 72 | 329 | 7.0 | 12.2 | 0.00 | 0.00 | 0.00 | 46 | 1019.4 |
| 20260902144328 | 74 | 340 | 1.7 | 4.3 | 0.00 | 0.00 | 0.00 | 39 | 1019.3 |
| 20260902143828 | 73 | 298 | 0.0 | 6.1 | 0.00 | 0.00 | 0.00 | 40 | 1019.2 |
| 20260902143327 | 74 | 243 | 3.5 | 8.7 | 0.00 | 0.00 | 0.00 | 40 | 1019.2 |
| 20260902142827 | 74 | 270 | 1.7 | 6.1 | 0.00 | 0.00 | 0.00 | 39 | 1019.2 |
| 20260902142327 | 74 | 217 | 0.0 | 3.5 | 0.00 | 0.00 | 0.00 | 41 | 1019.2 |
| 20260902141827 | 73 | 331 | 0.0 | 6.1 | 0.00 | 0.00 | 0.00 | 41 | 1019.2 |
| 20260902141326 | 73 | 305 | 2.6 | 6.1 | 0.00 | 0.00 | 0.00 | 41 | 1019.3 |
| 20260902140826 | 74 | 254 | 3.5 | 7.0 | 0.00 | 0.00 | 0.00 | 39 | 1019.2 |
| 20260902140326 | 74 | 233 | 0.0 | 5.2 | 0.00 | 0.00 | 0.00 | 40 | 1019.2 |
| 20260902135825 | 74 | 289 | 0.9 | 2.6 | 0.00 | 0.00 | 0.00 | 39 | 1019.3 |
| 20260902135325 | 74 | 306 | 0.0 | 2.6 | 0.00 | 0.00 | 0.00 | 39 | 1019.3 |
| 20260902134825 | 74 | 277 | 0.9 | 7.0 | 0.00 | 0.00 | 0.00 | 39 | 1019.3 |
| 20260902134325 | 73 | 293 | 0.0 | 7.8 | 0.00 | 0.00 | 0.00 | 39 | 1019.3 |
| 20260902133824 | 73 | 234 | 2.6 | 7.0 | 0.00 | 0.00 | 0.00 | 40 | 1019.4 |
| 20260902133324 | 74 | 278 | 3.5 | 7.0 | 0.00 | 0.00 | 0.00 | 38 | 1019.5 |
| 20260902132824 | 74 | 220 | 0.9 | 6.1 | 0.00 | 0.00 | 0.00 | 39 | 1019.5 |
| 20260902132323 | 73 | 250 | 2.6 | 7.0 | 0.00 | 0.00 | 0.00 | 40 | 1019.6 |
| 20260902131823 | 74 | 232 | 4.3 | 5.2 | 0.00 | 0.00 | 0.00 | 40 | 1019.6 |
| 20260902131323 | 73 | 322 | 1.7 | 6.1 | 0.00 | 0.00 | 0.00 | 39 | 1019.7 |
| 20260902130823 | 74 | 222 | 2.6 | 4.3 | 0.00 | 0.00 | 0.00 | 40 | 1019.8 |
| 20260902130322 | 74 | 253 | 2.6 | 7.8 | 0.00 | 0.00 | 0.00 | 41 | 1019.8 |
| 20260902125822 | 74 | 225 | 7.0 | 7.0 | 0.00 | 0.00 | 0.00 | 41 | 1019.9 |
| 20260902125322 | 74 | 244 | 0.0 | 5.2 | 0.00 | 0.00 | 0.00 | 40 | 1020.0 |
| 20260902124821 | 74 | 299 | 2.6 | 9.6 | 0.00 | 0.00 | 0.00 | 42 | 1020.1 |
| 20260902124321 | 74 | 225 | 7.8 | 8.7 | 0.00 | 0.00 | 0.00 | 40 | 1020.1 |
| 20260902123821 | 74 | 320 | 4.3 | 6.1 | 0.00 | 0.00 | 0.00 | 41 | 1020.2 |
| 20260902123321 | 74 | 295 | 0.9 | 7.8 | 0.00 | 0.00 | 0.00 | 41 | 1020.3 |
| 20260902122820 | 74 | 229 | 0.9 | 5.2 | 0.00 | 0.00 | 0.00 | 41 | 1020.3 |
| 20260902122320 | 74 | 305 | 0.9 | 3.5 | 0.00 | 0.00 | 0.00 | 41 | 1020.4 |
| 20260902121820 | 73 | 150 | 0.0 | 3.5 | 0.00 | 0.00 | 0.00 | 42 | 1020.4 |
| 20260902121320 | 73 | 324 | 2.6 | 6.1 | 0.00 | 0.00 | 0.00 | 42 | 1020.6 |
| 20260902120819 | 74 | 288 | 3.5 | 8.7 | 0.00 | 0.00 | 0.00 | 42 | 1020.7 |
| 20260902120319 | 73 | 40 | 0.0 | 1.7 | 0.00 | 0.00 | 0.00 | 41 | 1020.7 |
| 20260902115819 | 73 | 40 | 0.0 | 4.3 | 0.00 | 0.00 | 0.00 | 42 | 1020.7 |
| 20260902115318 | 72 | 7 | 0.9 | 4.3 | 0.00 | 0.00 | 0.00 | 41 | 1020.8 |
| 20260902114818 | 72 | 315 | 0.9 | 5.2 | 0.00 | 0.00 | 0.00 | 44 | 1020.8 |
| 20260902114318 | 71 | 16 | 2.6 | 5.2 | 0.00 | 0.00 | 0.00 | 44 | 1020.8 |
| 20260902113817 | 72 | 247 | 2.6 | 4.3 | 0.00 | 0.00 | 0.00 | 45 | 1020.9 |
| 20260902113317 | 72 | 299 | 0.0 | 6.1 | 0.00 | 0.00 | 0.00 | 45 | 1020.9 |
| 20260902112817 | 72 | 268 | 1.7 | 3.5 | 0.00 | 0.00 | 0.00 | 46 | 1020.9 |
| 20260902112317 | 72 | 281 | 0.0 | 4.3 | 0.00 | 0.00 | 0.00 | 45 | 1021.0 |
| 20260902111816 | 72 | 257 | 2.6 | 5.2 | 0.00 | 0.00 | 0.00 | 44 | 1021.1 |
| 20260902111316 | 72 | 300 | 0.0 | 5.2 | 0.00 | 0.00 | 0.00 | 46 | 1021.1 |
| 20260902110816 | 72 | 251 | 0.0 | 3.5 | 0.00 | 0.00 | 0.00 | 49 | 1021.2 |
| 20260902110316 | 71 | 289 | 0.0 | 5.2 | 0.00 | 0.00 | 0.00 | 48 | 1021.2 |
| 20260902105815 | 70 | 279 | 2.6 | 7.0 | 0.00 | 0.00 | 0.00 | 48 | 1021.3 |
| 20260902105315 | 70 | 316 | 0.9 | 6.1 | 0.00 | 0.00 | 0.00 | 48 | 1021.4 |
| 20260902104815 | 70 | 4 | 2.6 | 7.8 | 0.00 | 0.00 | 0.00 | 48 | 1021.3 |
| 20260902104314 | 70 | 345 | 0.0 | 3.5 | 0.00 | 0.00 | 0.00 | 50 | 1021.4 |
| 20260902103814 | 71 | 306 | 0.9 | 6.1 | 0.00 | 0.00 | 0.00 | 48 | 1021.4 |
| 20260902103314 | 70 | 243 | 5.2 | 8.7 | 0.00 | 0.00 | 0.00 | 48 | 1021.6 |
| 20260902102814 | 70 | 345 | 3.5 | 5.2 | 0.00 | 0.00 | 0.00 | 48 | 1021.6 |
| 20260902102313 | 70 | 206 | 0.0 | 7.0 | 0.00 | 0.00 | 0.00 | 49 | 1021.6 |
| 20260902101813 | 70 | 222 | 0.9 | 6.1 | 0.00 | 0.00 | 0.00 | 49 | 1021.8 |
| 20260902101313 | 70 | 251 | 5.2 | 5.2 | 0.00 | 0.00 | 0.00 | 49 | 1021.8 |
| 20260902100812 | 70 | 293 | 2.6 | 6.1 | 0.00 | 0.00 | 0.00 | 49 | 1021.9 |
| 20260902100312 | 70 | 271 | 0.9 | 4.3 | 0.00 | 0.00 | 0.00 | 51 | 1021.9 |
| 20260902095812 | 69 | 265 | 1.7 | 7.0 | 0.00 | 0.00 | 0.00 | 50 | 1022.0 |
| 20260902095312 | 69 | 317 | 2.6 | 7.8 | 0.00 | 0.00 | 0.00 | 51 | 1022.1 |
| 20260902094811 | 69 | 261 | 4.3 | 7.0 | 0.00 | 0.00 | 0.00 | 50 | 1022.0 |
| 20260902094311 | 69 | 302 | 1.7 | 8.7 | 0.00 | 0.00 | 0.00 | 49 | 1022.1 |
| 20260902093811 | 69 | 257 | 4.3 | 9.6 | 0.00 | 0.00 | 0.00 | 50 | 1022.1 |
| 20260902093310 | 69 | 233 | 4.3 | 6.1 | 0.00 | 0.00 | 0.00 | 50 | 1022.1 |
| 20260902092810 | 69 | 277 | 4.3 | 9.6 | 0.00 | 0.00 | 0.00 | 49 | 1022.1 |
| 20260902092310 | 69 | 330 | 1.7 | 7.8 | 0.00 | 0.00 | 0.00 | 50 | 1022.1 |
| 20260902091810 | 69 | 241 | 6.1 | 7.0 | 0.00 | 0.00 | 0.00 | 51 | 1022.0 |
| 20260902091309 | 69 | 278 | 3.5 | 9.6 | 0.00 | 0.00 | 0.00 | 49 | 1022.1 |
| 20260902090809 | 69 | 241 | 0.0 | 6.1 | 0.00 | 0.00 | 0.00 | 52 | 1022.1 |
| 20260902090309 | 69 | 192 | 2.6 | 7.0 | 0.00 | 0.00 | 0.00 | 51 | 1022.0 |
| 20260902085808 | 69 | 274 | 2.6 | 6.1 | 0.00 | 0.00 | 0.00 | 52 | 1022.1 |
| 20260902085308 | 69 | 25 | 0.0 | 5.2 | 0.00 | 0.00 | 0.00 | 53 | 1022.1 |
| 20260902084808 | 68 | 220 | 1.7 | 5.2 | 0.00 | 0.00 | 0.00 | 55 | 1022.2 |
| 20260902084308 | 68 | 219 | 3.5 | 7.0 | 0.00 | 0.00 | 0.00 | 53 | 1022.2 |
| 20260902083807 | 68 | 305 | 6.1 | 6.1 | 0.00 | 0.00 | 0.00 | 53 | 1022.2 |
| 20260902083307 | 68 | 258 | 4.3 | 4.3 | 0.00 | 0.00 | 0.00 | 56 | 1022.2 |
| 20260902082807 | 68 | 215 | 0.9 | 3.5 | 0.00 | 0.00 | 0.00 | 57 | 1022.3 |
| 20260902082309 | 68 | 246 | 1.7 | 4.3 | 0.00 | 0.00 | 0.00 | 59 | 1022.3 |
| 20260902081806 | 67 | 289 | 1.7 | 5.2 | 0.00 | 0.00 | 0.00 | 57 | 1022.4 |
| 20260902081306 | 67 | 322 | 0.9 | 4.3 | 0.00 | 0.00 | 0.00 | 59 | 1022.3 |
| 20260902080806 | 67 | 240 | 3.5 | 5.2 | 0.00 | 0.00 | 0.00 | 60 | 1022.3 |
| 20260902080305 | 67 | 281 | 2.6 | 4.3 | 0.00 | 0.00 | 0.00 | 59 | 1022.4 |
| 20260902075805 | 66 | 255 | 2.6 | 7.0 | 0.00 | 0.00 | 0.00 | 60 | 1022.4 |
| 20260902075306 | 66 | 237 | 4.3 | 5.2 | 0.00 | 0.00 | 0.00 | 61 | 1022.3 |
| 20260902074804 | 66 | 234 | 0.9 | 6.1 | 0.00 | 0.00 | 0.00 | 60 | 1022.3 |
| 20260902074304 | 66 | 277 | 4.3 | 7.0 | 0.00 | 0.00 | 0.00 | 61 | 1022.2 |
| 20260902073804 | 66 | 189 | 2.6 | 6.1 | 0.00 | 0.00 | 0.00 | 61 | 1022.3 |
| 20260902073304 | 66 | 240 | 0.9 | 6.1 | 0.00 | 0.00 | 0.00 | 62 | 1022.2 |
| 20260902072803 | 65 | 261 | 1.7 | 7.0 | 0.00 | 0.00 | 0.00 | 63 | 1022.2 |
| 20260902072309 | 65 | 240 | 4.3 | 6.1 | 0.00 | 0.00 | 0.00 | 65 | 1022.2 |
| 20260902071803 | 64 | 277 | 0.9 | 5.2 | 0.00 | 0.00 | 0.00 | 66 | 1022.2 |
| 20260902071303 | 63 | 165 | 0.9 | 4.3 | 0.00 | 0.00 | 0.00 | 67 | 1022.2 |
| 20260902070802 | 63 | 244 | 1.7 | 4.3 | 0.00 | 0.00 | 0.00 | 67 | 1022.2 |
| 20260902070302 | 63 | 233 | 3.5 | 4.3 | 0.00 | 0.00 | 0.00 | 68 | 1022.1 |
| 20260902065802 | 62 | 219 | 0.9 | 3.5 | 0.00 | 0.00 | 0.00 | 69 | 1022.1 |
| 20260902065301 | 62 | 236 | 0.9 | 3.5 | 0.00 | 0.00 | 0.00 | 71 | 1022.0 |
| 20260902064801 | 62 | 216 | 1.7 | 4.3 | 0.00 | 0.00 | 0.00 | 71 | 1022.0 |
| 20260902064301 | 61 | 246 | 3.5 | 3.5 | 0.00 | 0.00 | 0.00 | 71 | 1022.0 |
| 20260902063801 | 61 | 132 | 0.9 | 2.6 | 0.00 | 0.00 | 0.00 | 74 | 1022.0 |
| 20260902063300 | 60 | 227 | 0.9 | 2.6 | 0.00 | 0.00 | 0.00 | 73 | 1022.0 |
| 20260902062800 | 60 | 219 | 0.9 | 4.3 | 0.00 | 0.00 | 0.00 | 74 | 1022.0 |
| 20260902062300 | 59 | 229 | 2.6 | 3.5 | 0.00 | 0.00 | 0.00 | 76 | 1022.0 |
| 20260902061759 | 59 | 216 | 2.6 | 3.5 | 0.00 | 0.00 | 0.00 | 77 | 1022.0 |
| 20260902061259 | 59 | 182 | 0.0 | 3.5 | 0.00 | 0.00 | 0.00 | 78 | 1022.1 |
| 20260902060759 | 58 | 246 | 0.0 | 4.3 | 0.00 | 0.00 | 0.00 | 79 | 1022.1 |
| 20260902060259 | 58 | 232 | 1.7 | 3.5 | 0.00 | 0.00 | 0.00 | 80 | 1022.1 |
| 20260902055758 | 57 | 225 | 1.7 | 3.5 | 0.00 | 0.00 | 0.00 | 81 | 1022.1 |
| 20260902055258 | 57 | 255 | 2.6 | 4.3 | 0.00 | 0.00 | 0.00 | 81 | 1022.0 |
| 20260902054758 | 57 | 222 | 3.5 | 4.3 | 0.00 | 0.00 | 0.00 | 81 | 1022.0 |
| 20260902054257 | 57 | 243 | 2.6 | 3.5 | 0.00 | 0.00 | 0.00 | 81 | 1022.0 |
| 20260902053757 | 57 | 213 | 1.7 | 4.3 | 0.00 | 0.00 | 0.00 | 81 | 1022.0 |
| 20260902053257 | 57 | 184 | 0.0 | 1.7 | 0.00 | 0.00 | 0.00 | 81 | 1022.1 |
| 20260902052757 | 57 | 184 | 1.7 | 3.5 | 0.00 | 0.00 | 0.00 | 81 | 1022.0 |
| 20260902052256 | 57 | 229 | 3.5 | 3.5 | 0.00 | 0.00 | 0.00 | 81 | 1022.0 |
| 20260902051756 | 57 | 205 | 2.6 | 3.5 | 0.00 | 0.00 | 0.00 | 81 | 1022.0 |
| 20260902051256 | 56 | 209 | 2.6 | 3.5 | 0.00 | 0.00 | 0.00 | 82 | 1021.9 |
| 20260902050755 | 56 | 261 | 1.7 | 5.2 | 0.00 | 0.00 | 0.00 | 82 | 1021.8 |
| 20260902050255 | 56 | 250 | 2.6 | 4.3 | 0.00 | 0.00 | 0.00 | 83 | 1021.8 |
| 20260902045755 | 56 | 230 | 2.6 | 6.1 | 0.00 | 0.00 | 0.00 | 83 | 1021.7 |
| 20260902045255 | 55 | 223 | 0.9 | 5.2 | 0.00 | 0.00 | 0.00 | 84 | 1021.7 |
| 20260902044755 | 55 | 223 | 1.7 | 4.3 | 0.00 | 0.00 | 0.00 | 84 | 1021.7 |
| 20260902044254 | 55 | 244 | 1.7 | 6.1 | 0.00 | 0.00 | 0.00 | 85 | 1021.7 |
| 20260902043754 | 55 | 241 | 1.7 | 5.2 | 0.00 | 0.00 | 0.00 | 85 | 1021.6 |
| 20260902043254 | 55 | 239 | 2.6 | 4.3 | 0.00 | 0.00 | 0.00 | 86 | 1021.7 |
| 20260902042753 | 54 | 222 | 2.6 | 7.8 | 0.00 | 0.00 | 0.00 | 86 | 1021.6 |
| 20260902042253 | 55 | 227 | 2.6 | 4.3 | 0.00 | 0.00 | 0.00 | 86 | 1021.6 |
| 20260902041753 | 54 | 229 | 2.6 | 3.5 | 0.00 | 0.00 | 0.00 | 87 | 1021.6 |
| 20260902041252 | 54 | 244 | 2.6 | 3.5 | 0.00 | 0.00 | 0.00 | 87 | 1021.6 |
| 20260902040752 | 54 | 254 | 2.6 | 4.3 | 0.00 | 0.00 | 0.00 | 87 | 1021.6 |
| 20260902040252 | 54 | 203 | 1.7 | 3.5 | 0.00 | 0.00 | 0.00 | 87 | 1021.6 |
| 20260902035752 | 54 | 236 | 1.7 | 4.3 | 0.00 | 0.00 | 0.00 | 87 | 1021.6 |
| 20260902035251 | 54 | 227 | 1.7 | 3.5 | 0.00 | 0.00 | 0.00 | 87 | 1021.4 |
| 20260902034751 | 54 | 217 | 2.6 | 3.5 | 0.00 | 0.00 | 0.00 | 87 | 1021.4 |
| 20260902034251 | 54 | 226 | 3.5 | 4.3 | 0.00 | 0.00 | 0.00 | 87 | 1021.6 |
| 20260902033750 | 54 | 261 | 1.7 | 4.3 | 0.00 | 0.00 | 0.00 | 87 | 1021.4 |
| 20260902033250 | 54 | 237 | 1.7 | 3.5 | 0.00 | 0.00 | 0.00 | 86 | 1021.4 |
| 20260902032750 | 54 | 230 | 3.5 | 3.5 | 0.00 | 0.00 | 0.00 | 86 | 1021.4 |
| 20260902032250 | 54 | 213 | 0.0 | 4.3 | 0.00 | 0.00 | 0.00 | 86 | 1021.4 |
| 20260902031749 | 54 | 222 | 0.0 | 4.3 | 0.00 | 0.00 | 0.00 | 86 | 1021.4 |
| 20260902031249 | 54 | 220 | 1.7 | 4.3 | 0.00 | 0.00 | 0.00 | 86 | 1021.4 |
| 20260902030749 | 54 | 222 | 1.7 | 5.2 | 0.00 | 0.00 | 0.00 | 86 | 1021.4 |
| 20260902030248 | 54 | 220 | 3.5 | 4.3 | 0.00 | 0.00 | 0.00 | 86 | 1021.4 |
| 20260902025748 | 54 | 241 | 0.0 | 3.5 | 0.00 | 0.00 | 0.00 | 87 | 1021.4 |
| 20260902025248 | 54 | 253 | 2.6 | 3.5 | 0.00 | 0.00 | 0.00 | 87 | 1021.3 |
| 20260902024748 | 54 | 226 | 1.7 | 4.3 | 0.00 | 0.00 | 0.00 | 87 | 1021.3 |
| 20260902024247 | 54 | 275 | 1.7 | 3.5 | 0.00 | 0.00 | 0.00 | 86 | 1021.3 |
| 20260902023747 | 54 | 240 | 2.6 | 2.6 | 0.00 | 0.00 | 0.00 | 86 | 1021.3 |
| 20260902023247 | 55 | 220 | 1.7 | 3.5 | 0.00 | 0.00 | 0.00 | 86 | 1021.3 |
| 20260902022747 | 55 | 254 | 1.7 | 4.3 | 0.00 | 0.00 | 0.00 | 86 | 1021.3 |
| 20260902022246 | 55 | 246 | 0.0 | 3.5 | 0.00 | 0.00 | 0.00 | 86 | 1021.3 |
| 20260902021746 | 55 | 246 | 0.9 | 3.5 | 0.00 | 0.00 | 0.00 | 86 | 1021.3 |
| 20260902021246 | 55 | 243 | 0.0 | 0.0 | 0.00 | 0.00 | 0.00 | 86 | 1021.3 |
| 20260902020745 | 55 | 243 | 0.0 | 0.0 | 0.00 | 0.00 | 0.00 | 86 | 1021.3 |
| 20260902020245 | 55 | 243 | 0.0 | 0.0 | 0.00 | 0.00 | 0.00 | 86 | 1021.3 |
| 20260902015745 | 55 | 243 | 0.0 | 0.0 | 0.00 | 0.00 | 0.00 | 86 | 1021.3 |
| 20260902015244 | 55 | 243 | 0.0 | 0.0 | 0.00 | 0.00 | 0.00 | 86 | 1021.3 |
| 20260902014744 | 55 | 243 | 0.0 | 0.0 | 0.00 | 0.00 | 0.00 | 86 | 1021.2 |
| 20260902014244 | 55 | 243 | 0.0 | 0.0 | 0.00 | 0.00 | 0.00 | 86 | 1021.3 |
| 20260902013744 | 55 | 243 | 0.0 | 0.0 | 0.00 | 0.00 | 0.00 | 86 | 1021.3 |
| 20260902013243 | 55 | 243 | 0.0 | 0.0 | 0.00 | 0.00 | 0.00 | 86 | 1021.4 |
| 20260902012743 | 55 | 243 | 0.0 | 0.0 | 0.00 | 0.00 | 0.00 | 86 | 1021.4 |
| 20260902012243 | 55 | 243 | 0.0 | 1.7 | 0.00 | 0.00 | 0.00 | 86 | 1021.4 |
| 20260902011742 | 55 | 215 | 1.7 | 3.5 | 0.00 | 0.00 | 0.00 | 86 | 1021.3 |
| 20260902011242 | 55 | 237 | 0.9 | 3.5 | 0.00 | 0.00 | 0.00 | 86 | 1021.4 |
| 20260902010742 | 55 | 220 | 1.7 | 2.6 | 0.00 | 0.00 | 0.00 | 85 | 1021.4 |
| 20260902010242 | 55 | 220 | 1.7 | 3.5 | 0.00 | 0.00 | 0.00 | 85 | 1021.3 |
| 20260902005741 | 55 | 233 | 1.7 | 2.6 | 0.00 | 0.00 | 0.00 | 85 | 1021.3 |
| 20260902005241 | 55 | 237 | 0.9 | 3.5 | 0.00 | 0.00 | 0.00 | 85 | 1021.2 |
| 20260902004741 | 56 | 241 | 1.7 | 2.6 | 0.00 | 0.00 | 0.00 | 85 | 1021.2 |
| 20260902004241 | 56 | 241 | 0.9 | 2.6 | 0.00 | 0.00 | 0.00 | 85 | 1021.2 |
| 20260902003740 | 56 | 239 | 1.7 | 2.6 | 0.00 | 0.00 | 0.00 | 84 | 1021.1 |
| 20260902003240 | 56 | 253 | 0.0 | 2.6 | 0.00 | 0.00 | 0.00 | 84 | 1021.1 |
| 20260902002740 | 56 | 237 | 0.0 | 1.7 | 0.00 | 0.00 | 0.00 | 84 | 1021.1 |
| 20260902002239 | 56 | 205 | 0.0 | 2.6 | 0.00 | 0.00 | 0.00 | 84 | 1021.0 |
| 20260902001739 | 56 | 206 | 0.9 | 2.6 | 0.00 | 0.00 | 0.00 | 84 | 1021.1 |
| 20260902001239 | 56 | 246 | 0.0 | 3.5 | 0.00 | 0.00 | 0.00 | 84 | 1021.1 |
| 20260902000739 | 56 | 222 | 0.9 | 2.6 | 0.00 | 0.00 | 0.00 | 84 | 1021.1 |
| 20260902000241 | 56 | 230 | 0.9 | 2.6 | 0.00 | 0.00 | 0.00 | 84 | 1021.1 |
| 20260901235738 | 56 | 223 | 0.9 | 3.5 | 0.00 | 0.00 | 0.00 | 84 | 1021.1 |
| 20260901235238 | 56 | 258 | 3.5 | 4.3 | 0.00 | 0.00 | 0.00 | 84 | 1021.1 |
| 20260901234737 | 56 | 253 | 1.7 | 1.7 | 0.00 | 0.00 | 0.00 | 84 | 1021.0 |
| 20260901234237 | 56 | 226 | 0.0 | 0.0 | 0.00 | 0.00 | 0.00 | 83 | 1021.0 |
| 20260901233737 | 56 | 226 | 0.0 | 2.6 | 0.00 | 0.00 | 0.00 | 83 | 1021.0 |
| 20260901233237 | 57 | 246 | 2.6 | 3.5 | 0.00 | 0.00 | 0.00 | 83 | 1020.9 |
| 20260901232736 | 56 | 236 | 1.7 | 1.7 | 0.00 | 0.00 | 0.00 | 83 | 1020.8 |
| 20260901232236 | 56 | 220 | 0.0 | 0.0 | 0.00 | 0.00 | 0.00 | 83 | 1020.8 |
| 20260901231736 | 57 | 220 | 0.0 | 0.0 | 0.00 | 0.00 | 0.00 | 83 | 1020.8 |
| 20260901231235 | 57 | 220 | 0.0 | 2.6 | 0.00 | 0.00 | 0.00 | 83 | 1020.7 |
| 20260901230735 | 57 | 227 | 1.7 | 2.6 | 0.00 | 0.00 | 0.00 | 83 | 1020.7 |
| 20260901230235 | 57 | 248 | 1.7 | 2.6 | 0.00 | 0.00 | 0.00 | 83 | 1020.7 |
| 20260901225735 | 57 | 210 | 0.9 | 2.6 | 0.00 | 0.00 | 0.00 | 83 | 1020.7 |
| 20260901225234 | 57 | 244 | 2.6 | 3.5 | 0.00 | 0.00 | 0.00 | 83 | 1020.6 |
| 20260901224734 | 57 | 213 | 1.7 | 3.5 | 0.00 | 0.00 | 0.00 | 84 | 1020.6 |
| 20260901224234 | 56 | 226 | 0.0 | 0.9 | 0.00 | 0.00 | 0.00 | 84 | 1020.6 |
| 20260901223733 | 57 | 244 | 0.9 | 0.9 | 0.00 | 0.00 | 0.00 | 84 | 1020.6 |
| 20260901223233 | 57 | 226 | 0.0 | 2.6 | 0.00 | 0.00 | 0.00 | 84 | 1020.6 |
| 20260901222733 | 56 | 251 | 0.9 | 1.7 | 0.00 | 0.00 | 0.00 | 85 | 1020.7 |
| 20260901222233 | 56 | 226 | 1.7 | 4.3 | 0.00 | 0.00 | 0.00 | 85 | 1020.6 |
| 20260901221732 | 56 | 237 | 0.9 | 3.5 | 0.00 | 0.00 | 0.00 | 85 | 1020.6 |
| 20260901221232 | 56 | 233 | 0.9 | 2.6 | 0.00 | 0.00 | 0.00 | 85 | 1020.7 |
| 20260901220732 | 56 | 233 | 0.0 | 0.9 | 0.00 | 0.00 | 0.00 | 84 | 1020.6 |
| 20260901220231 | 56 | 215 | 0.0 | 0.0 | 0.00 | 0.00 | 0.00 | 84 | 1020.6 |
| 20260901215731 | 57 | 215 | 0.0 | 0.0 | 0.00 | 0.00 | 0.00 | 83 | 1020.5 |
| 20260901215231 | 56 | 215 | 0.0 | 0.0 | 0.00 | 0.00 | 0.00 | 83 | 1020.5 |
| 20260901214731 | 56 | 215 | 0.0 | 0.0 | 0.00 | 0.00 | 0.00 | 83 | 1020.6 |
| 20260901214230 | 57 | 215 | 0.0 | 0.0 | 0.00 | 0.00 | 0.00 | 83 | 1020.6 |
| 20260901213730 | 57 | 215 | 0.0 | 0.0 | 0.00 | 0.00 | 0.00 | 83 | 1020.5 |
| 20260901213230 | 57 | 215 | 0.0 | 0.0 | 0.00 | 0.00 | 0.00 | 82 | 1020.5 |
| 20260901212729 | 57 | 215 | 0.0 | 0.0 | 0.00 | 0.00 | 0.00 | 82 | 1020.4 |
| 20260901212229 | 57 | 215 | 0.0 | 0.0 | 0.00 | 0.00 | 0.00 | 82 | 1020.4 |
| 20260901211729 | 57 | 215 | 0.0 | 0.0 | 0.00 | 0.00 | 0.00 | 82 | 1020.4 |
| 20260901211229 | 57 | 215 | 0.0 | 0.9 | 0.00 | 0.00 | 0.00 | 82 | 1020.4 |
| 20260901210728 | 57 | 208 | 0.0 | 0.9 | 0.00 | 0.00 | 0.00 | 83 | 1020.3 |
| 20260901210228 | 57 | 312 | 0.0 | 0.0 | 0.00 | 0.00 | 0.00 | 82 | 1020.3 |
| 20260901205728 | 57 | 312 | 0.0 | 0.0 | 0.00 | 0.00 | 0.00 | 82 | 1020.2 |
| 20260901205227 | 57 | 312 | 0.0 | 0.0 | 0.00 | 0.00 | 0.00 | 81 | 1020.2 |
| 20260901204727 | 57 | 312 | 0.0 | 0.0 | 0.00 | 0.00 | 0.00 | 81 | 1020.2 |
| 20260901204227 | 58 | 312 | 0.0 | 0.0 | 0.00 | 0.00 | 0.00 | 81 | 1020.1 |
| 20260901203727 | 58 | 312 | 0.0 | 0.0 | 0.00 | 0.00 | 0.00 | 81 | 1020.1 |
| 20260901203226 | 58 | 312 | 0.0 | 0.0 | 0.00 | 0.00 | 0.00 | 81 | 1020.1 |
| 20260901202726 | 58 | 312 | 0.0 | 0.0 | 0.00 | 0.00 | 0.00 | 81 | 1020.1 |
| 20260901202226 | 57 | 312 | 0.0 | 0.0 | 0.00 | 0.00 | 0.00 | 82 | 1020.1 |
| 20260901201725 | 57 | 312 | 0.0 | 0.0 | 0.00 | 0.00 | 0.00 | 83 | 1020.1 |
| 20260901201225 | 56 | 312 | 0.0 | 0.0 | 0.00 | 0.00 | 0.00 | 84 | 1020.0 |
| 20260901200725 | 56 | 312 | 0.0 | 0.0 | 0.00 | 0.00 | 0.00 | 83 | 1020.0 |
| 20260901200225 | 56 | 312 | 0.0 | 0.0 | 0.00 | 0.00 | 0.00 | 83 | 1020.0 |
| 20260901195724 | 56 | 312 | 0.0 | 0.0 | 0.00 | 0.00 | 0.00 | 83 | 1019.9 |
| 20260901195224 | 57 | 312 | 0.0 | 0.0 | 0.00 | 0.00 | 0.00 | 82 | 1020.0 |
| 20260901194724 | 57 | 312 | 0.0 | 0.0 | 0.00 | 0.00 | 0.00 | 82 | 1019.9 |
| 20260901194224 | 57 | 312 | 0.0 | 0.0 | 0.00 | 0.00 | 0.00 | 83 | 1019.9 |
| 20260901193723 | 57 | 312 | 0.0 | 0.0 | 0.00 | 0.00 | 0.00 | 83 | 1019.9 |
| 20260901193223 | 57 | 312 | 0.0 | 0.0 | 0.00 | 0.00 | 0.00 | 82 | 1019.9 |
| 20260901192723 | 57 | 312 | 0.0 | 0.0 | 0.00 | 0.00 | 0.00 | 81 | 1019.8 |
| 20260901192222 | 57 | 312 | 0.0 | 0.0 | 0.00 | 0.00 | 0.00 | 81 | 1019.8 |
| 20260901191722 | 57 | 312 | 0.0 | 0.0 | 0.00 | 0.00 | 0.00 | 81 | 1019.9 |
| 20260901191222 | 57 | 312 | 0.0 | 0.0 | 0.00 | 0.00 | 0.00 | 80 | 1019.8 |
| 20260901190722 | 57 | 312 | 0.0 | 0.0 | 0.00 | 0.00 | 0.00 | 80 | 1019.8 |
| 20260901190221 | 57 | 312 | 0.0 | 0.0 | 0.00 | 0.00 | 0.00 | 79 | 1019.7 |
| 20260901185721 | 58 | 312 | 0.0 | 0.0 | 0.00 | 0.00 | 0.00 | 79 | 1019.8 |
| 20260901185221 | 58 | 312 | 0.0 | 0.0 | 0.00 | 0.00 | 0.00 | 78 | 1019.8 |
| 20260901184720 | 58 | 312 | 0.0 | 0.0 | 0.00 | 0.00 | 0.00 | 77 | 1019.7 |
| 20260901184220 | 58 | 312 | 0.0 | 0.0 | 0.00 | 0.00 | 0.00 | 77 | 1019.7 |
| 20260901183720 | 58 | 312 | 0.0 | 0.0 | 0.00 | 0.00 | 0.00 | 76 | 1019.6 |
| 20260901183220 | 59 | 312 | 0.0 | 0.0 | 0.00 | 0.00 | 0.00 | 75 | 1019.6 |
| 20260901182719 | 59 | 312 | 0.0 | 0.0 | 0.00 | 0.00 | 0.00 | 75 | 1019.5 |
| 20260901182219 | 59 | 312 | 0.0 | 0.0 | 0.00 | 0.00 | 0.00 | 74 | 1019.5 |
| 20260901181719 | 60 | 312 | 0.0 | 0.0 | 0.00 | 0.00 | 0.00 | 73 | 1019.5 |
| 20260901181218 | 60 | 312 | 0.0 | 0.0 | 0.00 | 0.00 | 0.00 | 72 | 1019.5 |
| 20260901180718 | 60 | 312 | 0.0 | 0.0 | 0.00 | 0.00 | 0.00 | 71 | 1019.4 |
| 20260901180218 | 61 | 312 | 0.0 | 0.0 | 0.00 | 0.00 | 0.00 | 70 | 1019.3 |
| 20260901175718 | 61 | 312 | 0.0 | 0.0 | 0.00 | 0.00 | 0.00 | 69 | 1019.2 |
| 20260901175217 | 62 | 312 | 0.0 | 0.0 | 0.00 | 0.00 | 0.00 | 68 | 1019.2 |
| 20260901174717 | 62 | 312 | 0.0 | 0.0 | 0.00 | 0.00 | 0.00 | 66 | 1019.1 |
| 20260901174217 | 63 | 312 | 0.0 | 0.0 | 0.00 | 0.00 | 0.00 | 64 | 1019.0 |
| 20260901173716 | 63 | 312 | 0.0 | 0.0 | 0.00 | 0.00 | 0.00 | 63 | 1019.0 |
| 20260901173216 | 64 | 312 | 0.0 | 0.0 | 0.00 | 0.00 | 0.00 | 61 | 1019.0 |
| 20260901172716 | 65 | 312 | 0.0 | 0.0 | 0.00 | 0.00 | 0.00 | 58 | 1019.0 |
| 20260901172216 | 66 | 312 | 0.0 | 0.0 | 0.00 | 0.00 | 0.00 | 54 | 1018.9 |
| 20260901171715 | 67 | 312 | 0.0 | 0.0 | 0.00 | 0.00 | 0.00 | 51 | 1018.8 |
| 20260901171215 | 67 | 312 | 0.0 | 1.7 | 0.00 | 0.00 | 0.00 | 50 | 1018.8 |
| 20260901170715 | 67 | 303 | 0.0 | 3.5 | 0.00 | 0.00 | 0.00 | 50 | 1018.7 |
| 20260901170214 | 68 | 305 | 1.7 | 1.7 | 0.00 | 0.00 | 0.00 | 49 | 1018.7 |
| 20260901165714 | 68 | 271 | 0.0 | 2.6 | 0.00 | 0.00 | 0.00 | 49 | 1018.7 |
| 20260901165214 | 68 | 320 | 1.7 | 4.3 | 0.00 | 0.00 | 0.00 | 48 | 1018.7 |
| 20260901164714 | 69 | 251 | 0.0 | 2.6 | 0.00 | 0.00 | 0.00 | 47 | 1018.7 |
| 20260901164213 | 69 | 324 | 0.0 | 5.2 | 0.00 | 0.00 | 0.00 | 47 | 1018.6 |
| 20260901163713 | 69 | 320 | 0.0 | 3.5 | 0.00 | 0.00 | 0.00 | 46 | 1018.5 |
| 20260901163213 | 69 | 303 | 3.5 | 7.0 | 0.00 | 0.00 | 0.00 | 45 | 1018.5 |
| 20260901162712 | 70 | 279 | 0.0 | 6.1 | 0.00 | 0.00 | 0.00 | 45 | 1018.4 |
| 20260901162212 | 70 | 250 | 0.9 | 6.1 | 0.00 | 0.00 | 0.00 | 44 | 1018.3 |
| 20260901161712 | 70 | 258 | 2.6 | 9.6 | 0.00 | 0.00 | 0.00 | 43 | 1018.4 |
| 20260901161212 | 70 | 295 | 1.7 | 9.6 | 0.00 | 0.00 | 0.00 | 44 | 1018.3 |
| 20260901160711 | 70 | 337 | 1.7 | 6.1 | 0.00 | 0.00 | 0.00 | 43 | 1018.2 |
| 20260901160211 | 71 | 345 | 2.6 | 7.0 | 0.00 | 0.00 | 0.00 | 43 | 1018.2 |
| 20260901155711 | 71 | 357 | 0.0 | 6.1 | 0.00 | 0.00 | 0.00 | 44 | 1018.2 |
| 20260901155211 | 71 | 277 | 0.0 | 7.0 | 0.00 | 0.00 | 0.00 | 43 | 1018.2 |
| 20260901154710 | 71 | 258 | 0.0 | 4.3 | 0.00 | 0.00 | 0.00 | 43 | 1018.2 |
| 20260901154210 | 71 | 219 | 0.0 | 7.0 | 0.00 | 0.00 | 0.00 | 43 | 1018.1 |
| 20260901153710 | 71 | 277 | 2.6 | 10.4 | 0.00 | 0.00 | 0.00 | 41 | 1018.1 |